This is the latest recevied weather packets stored in our database for station/object W4MSI. If no packets are shown the sender has not sent any weather packets the latest 10 day(s).
| Time | Temp. | Humidity | Pressure | Rain* | Wind** | Luminosity | Snow |
|---|---|---|---|---|---|---|---|
| 1777674475 | 16.67° C | 41% | 1014.4 hPa | 0 mm | - | 233 W/m² | - |
| 1777674174 | 16.67° C | 43% | 1014.3 hPa | 0 mm | - | 236 W/m² | - |
| 1777673869 | 16.11° C | 45% | 1014.4 hPa | 0 mm | - | 220 W/m² | - |
| 1777673566 | 16.11° C | 42% | 1014 hPa | 0 mm | - | 188 W/m² | - |
| 1777673264 | 16.67° C | 39% | 1014.3 hPa | 0 mm | - | 123 W/m² | - |
| 1777672961 | 16.67° C | 42% | 1014.5 hPa | 0 mm | - | 382 W/m² | - |
| 1777672658 | 16.11° C | 44% | 1014.2 hPa | 0 mm | - | 197 W/m² | - |
| 1777672353 | 16.67° C | 38% | 1014.2 hPa | 0 mm | - | 486 W/m² | - |
| 1777672049 | 16.67° C | 39% | 1014.2 hPa | 0 mm | - | 210 W/m² | - |
| 1777671745 | 17.22° C | 38% | 1014.3 hPa | 0 mm | - | 304 W/m² | - |
| 1777671441 | 17.22° C | 37% | 1014.3 hPa | 0 mm | - | 382 W/m² | - |
| 1777671137 | 17.22° C | 35% | 1014.3 hPa | 0 mm | - | 470 W/m² | - |
| 1777670834 | 16.67° C | 39% | 1014.4 hPa | 0 mm | - | 544 W/m² | - |
| 1777670531 | 17.22° C | 34% | 1014.5 hPa | 0 mm | - | 460 W/m² | - |
| 1777670227 | 17.78° C | 32% | 1014.4 hPa | 0 mm | - | 474 W/m² | - |
| 1777669924 | 17.78° C | 35% | 1014.7 hPa | 0 mm | - | 555 W/m² | - |
| 1777669621 | 17.78° C | 36% | 1014.5 hPa | 0 mm | - | 552 W/m² | - |
| 1777669318 | 17.78° C | 34% | 1014.9 hPa | 0 mm | - | 592 W/m² | - |
| 1777669014 | 17.78° C | 38% | 1015 hPa | 0 mm | - | 568 W/m² | - |
| 1777668712 | 17.78° C | 33% | 1014.9 hPa | 0 mm | - | 572 W/m² | - |
| 1777668408 | 17.22° C | 32% | 1015 hPa | 0 mm | - | 532 W/m² | - |
| 1777668104 | 16.67° C | 39% | 1015 hPa | 0 mm | - | 707 W/m² | - |
| 1777667801 | 17.22° C | 32% | 1015.1 hPa | 0 mm | - | 318 W/m² | - |
| 1777667499 | 17.22° C | 34% | 1014.8 hPa | 0 mm | - | 551 W/m² | - |
| 1777667195 | 17.22° C | 31% | 1015.2 hPa | 0 mm | - | 581 W/m² | - |
* Rain latest hour (hover to see other rain measurements)
** Current wind speed in m/s (hover to see current wind gust speed)